Flag for France Weather past 2 weeks in Le Mans, France

Now
50 °F

Clear.


Feels Like: 50 °F
Forecast: 47 / 76 °F
Wind: 2 mph from North

Location: Le Mans Airport

Current Time: Jul 30, 2015 at 4:50:25 AM

Latest Report: Jul 30, 2015 at 4:30 AM


Visibility: 10 mi

Pressure: 30.07 "Hg

Humidity: 82%

Dew point: 45 °F

Location of Le MansLocation

Historic Weather in Le Mans — Graph

°F

Le Mans temperature yesterday

Maximum temperature yesterday: 73 °F (at 4:00 PM)
Minimum temperature yesterday: 50 °F (at 7:30 AM)
Average temperature yesterday: 61 °F

Past Weeks' High & Low Weather Summary

 TemperatureHumidityPressure
High99 °F (Jul 16, 5:00 PM)100% (Jul 29, 8:00 AM)30.15 "Hg (Jul 29, 8:00 AM)
Low48 °F (Jul 30, 3:30 AM)19% (Jul 16, 3:30 PM)29.65 "Hg (Jul 24, 7:30 PM)
Average69 °F61%29.96 "Hg
* Reported Jul 15 3:00 AM — Jul 30 3:30 AM, Le Mans, Weather by CustomWeather, © 2015

Note: Actual official high and low records may vary slightly from our data, if they occured in-between our weather recording intervals... More about our weather records

Advertising

Le Mans weather history for previous 24 hours

 ConditionsComfort  
Time TempWeatherWind HumidityBarometerVisibility
3:30 AM
Thu, Jul 30
48 °FClear.1 mph82%30.07 "Hg10 mi
3:00 AM52 °FClear.3 mph77%30.07 "Hg10 mi
2:30 AM54 °FClear.2 mph72%30.07 "Hg10 mi
2:00 AM54 °FClear.2 mph72%30.07 "Hg10 mi
1:30 AM55 °FClear.2 mph67%30.07 "Hg10 mi
1:00 AM55 °FClear.3 mph67%30.07 "Hg10 mi
12:30 AM55 °FPassing clouds.3 mph63%30.07 "HgN/A
12:00 AM57 °FClear.3 mph59%30.07 "Hg10 mi
11:30 PM
Wed, Jul 29
59 °FClear.3 mph55%30.07 "Hg10 mi
11:00 PM59 °FPassing clouds.3 mph55%30.04 "HgN/A
10:30 PM61 °FPassing clouds.5 mph52%30.04 "HgN/A
10:00 PM63 °FPassing clouds.6 mph49%30.04 "HgN/A
9:30 PM64 °FPassing clouds.7 mph46%30.01 "HgN/A
9:00 PM66 °FPassing clouds.7 mph43%30.01 "HgN/A
8:30 PM68 °FPassing clouds.9 mph40%30.01 "HgN/A
8:00 PM70 °FPassing clouds.8 mph38%30.01 "HgN/A
7:30 PM70 °FPassing clouds.9 mph38%30.01 "HgN/A
7:00 PM70 °FPassing clouds.9 mph38%29.98 "HgN/A
6:30 PM70 °FPassing clouds.8 mph38%29.98 "HgN/A
6:00 PM70 °FPassing clouds.7 mph40%29.98 "HgN/A
5:30 PM70 °FPassing clouds.9 mph40%29.98 "HgN/A
5:00 PM72 °FPassing clouds.8 mph36%29.98 "HgN/A
4:30 PM70 °FPassing clouds.9 mph38%29.98 "HgN/A
4:00 PM73 °FPassing clouds.8 mph31%29.98 "HgN/A
3:30 PM72 °FPassing clouds.8 mph36%29.98 "HgN/A
3:00 PM70 °FPassing clouds.8 mph38%29.98 "HgN/A
2:30 PM68 °FPassing clouds.7 mph40%29.98 "HgN/A
2:00 PM68 °FPartly sunny.7 mph40%29.98 "HgN/A
1:30 PM68 °FPartly sunny.8 mph40%29.98 "HgN/A
1:00 PM66 °FPartly sunny.9 mph46%29.98 "HgN/A
12:30 PM66 °FPassing clouds.7 mph46%29.98 "HgN/A
12:00 PM64 °FPartly sunny.8 mph52%29.98 "HgN/A
11:30 AM64 °FBroken clouds.6 mph56%29.98 "HgN/A
11:00 AM63 °FBroken clouds.7 mph59%29.98 "HgN/A
10:30 AM61 °FBroken clouds.5 mph68%29.95 "HgN/A
9:30 AM55 °FPartly sunny.3 mph82%29.95 "HgN/A
9:00 AM54 °FPartly sunny.3 mph88%29.95 "HgN/A
8:30 AM52 °FLow clouds.3 mph94%29.95 "Hg5 mi
8:00 AM50 °FFog.2 mph100%29.95 "Hg1 mi
7:30 AM50 °FFog.3 mph94%29.95 "Hg0 mi
7:00 AM52 °FPassing clouds.3 mph94%29.92 "Hg6 mi
5:30 AM54 °FClear.2 mph88%29.92 "Hg10 mi
5:00 AM54 °FClear.2 mph88%29.92 "Hg10 mi
4:30 AM54 °FClear.2 mph88%29.92 "Hg10 mi
4:00 AM54 °FClear.2 mph88%29.92 "Hg10 mi
Weather by CustomWeather, © 2015

See weather overviewHow to use our weather pages